Time,TemperatureF,DewpointF,PressureIn,WindDirection,WindDirectionDegrees,WindSpeedMPH,WindSpeedGustMPH,Humidity,HourlyPrecipIn,Conditions,Clouds,dailyrainin,SoftwareType,DateUTC
2013-03-20 00:00:00,42.9,9.4,29.98,ESE,113,8.9,9.8,25,0.00,,,0.00,WUHU216HW,2013-03-20 04:00:00,
2013-03-20 00:01:00,42.9,9.4,29.98,ESE,113,10.0,10.0,25,0.00,,,0.00,WUHU216HW,2013-03-20 04:01:00,
2013-03-20 00:05:00,42.9,9.4,29.98,East,90,6.9,13.1,25,0.00,,,0.00,WUHU216HW,2013-03-20 04:05:00,
2013-03-20 00:11:00,42.8,9.3,29.98,SSE,158,9.8,13.1,25,0.00,,,0.00,WUHU216HW,2013-03-20 04:11:00,
2013-03-20 00:16:00,42.9,8.5,29.98,SSE,151,12.2,17.2,24,0.00,,,0.00,WUHU216HW,2013-03-20 04:16:00,
2013-03-20 00:21:00,43.1,8.7,29.98,SE,135,13.6,17.2,24,0.00,,,0.00,WUHU216HW,2013-03-20 04:21:00,
2013-03-20 00:26:00,42.9,8.5,29.98,SSE,158,18.1,18.1,24,0.00,,,0.00,WUHU216HW,2013-03-20 04:26:00,
2013-03-20 00:31:00,42.9,9.4,29.98,ESE,113,9.3,18.1,25,0.00,,,0.00,WUHU216HW,2013-03-20 04:31:00,
2013-03-20 00:36:00,42.6,8.3,29.98,SE,135,8.5,13.8,24,0.00,,,0.00,WUHU216HW,2013-03-20 04:36:00,
2013-03-20 00:41:00,42.6,9.2,29.98,ESE,113,10.0,13.8,25,0.00,,,0.00,WUHU216HW,2013-03-20 04:41:00,
2013-03-20 00:46:00,42.0,9.5,29.98,SE,135,8.0,10.0,26,0.00,,,0.00,WUHU216HW,2013-03-20 04:46:00,
2013-03-20 00:52:00,42.0,8.7,29.99,ESE,113,4.6,10.0,25,0.00,,,0.00,WUHU216HW,2013-03-20 04:52:00,
2013-03-20 00:57:00,42.0,8.7,29.99,SE,146,4.0,10.0,25,0.00,,,0.00,WUHU216HW,2013-03-20 04:57:00,
2013-03-20 01:02:00,42.0,9.5,30.00,SE,135,5.1,6.9,26,0.00,,,0.00,WUHU216HW,2013-03-20 05:02:00,
2013-03-20 01:07:00,41.7,9.2,30.00,SE,135,6.2,6.9,26,0.00,,,0.00,WUHU216HW,2013-03-20 05:07:00,
2013-03-20 01:13:00,41.7,9.2,30.00,SSE,158,6.2,7.6,26,0.00,,,0.00,WUHU216HW,2013-03-20 05:13:00,
2013-03-20 01:20:00,41.5,9.1,30.00,SSE,158,4.6,8.0,26,0.00,,,0.00,WUHU216HW,2013-03-20 05:20:00,
2013-03-20 01:26:00,41.5,9.1,30.00,SE,135,9.4,11.1,26,0.00,,,0.00,WUHU216HW,2013-03-20 05:26:00,
2013-03-20 01:31:00,41.5,9.1,30.00,SSE,151,11.8,16.7,26,0.00,,,0.00,WUHU216HW,2013-03-20 05:31:00,
2013-03-20 01:36:00,41.5,9.1,30.00,SSE,158,6.4,16.7,26,0.00,,,0.00,WUHU216HW,2013-03-20 05:36:00,
2013-03-20 01:42:00,41.5,9.1,30.00,SE,127,9.4,12.3,26,0.00,,,0.00,WUHU216HW,2013-03-20 05:42:00,
2013-03-20 01:47:00,41.5,9.9,30.00,East,90,4.2,12.3,27,0.00,,,0.00,WUHU216HW,2013-03-20 05:47:00,
2013-03-20 01:52:00,41.1,9.6,30.00,East,90,6.7,12.7,27,0.00,,,0.00,WUHU216HW,2013-03-20 05:52:00,
2013-03-20 01:57:00,41.1,9.6,30.01,SE,135,12.0,15.2,27,0.00,,,0.00,WUHU216HW,2013-03-20 05:57:00,
2013-03-20 02:02:00,41.1,9.6,30.01,East,90,9.1,15.2,27,0.00,,,0.00,WUHU216HW,2013-03-20 06:02:00,
2013-03-20 02:07:00,41.1,9.6,30.01,SE,135,5.8,10.0,27,0.00,,,0.00,WUHU216HW,2013-03-20 06:07:00,
2013-03-20 02:12:00,41.1,9.6,30.01,SE,135,11.1,11.1,27,0.00,,,0.00,WUHU216HW,2013-03-20 06:12:00,
2013-03-20 02:17:00,41.0,9.5,30.01,ESE,117,6.1,11.1,27,0.00,,,0.00,WUHU216HW,2013-03-20 06:17:00,
2013-03-20 02:22:00,40.8,10.1,30.01,SSE,158,5.3,11.1,28,0.00,,,0.00,WUHU216HW,2013-03-20 06:22:00,
2013-03-20 02:28:00,40.6,9.9,30.01,SSE,158,8.2,8.2,28,0.00,,,0.00,WUHU216HW,2013-03-20 06:28:00,
2013-03-20 02:33:00,40.6,9.9,30.01,SSE,158,9.4,10.0,28,0.00,,,0.00,WUHU216HW,2013-03-20 06:33:00,
2013-03-20 02:38:00,40.6,9.9,30.01,SE,135,3.8,13.4,28,0.00,,,0.00,WUHU216HW,2013-03-20 06:38:00,
2013-03-20 02:43:00,40.2,9.6,30.01,ENE,68,4.9,13.4,28,0.00,,,0.00,WUHU216HW,2013-03-20 06:43:00,
2013-03-20 02:48:00,40.1,9.5,30.01,ESE,113,7.8,7.8,28,0.00,,,0.00,WUHU216HW,2013-03-20 06:48:00,
2013-03-20 02:53:00,39.9,9.3,30.01,SSE,158,6.7,7.8,28,0.00,,,0.00,WUHU216HW,2013-03-20 06:53:00,
2013-03-20 02:58:00,39.9,10.1,30.01,SE,135,6.7,7.8,29,0.00,,,0.00,WUHU216HW,2013-03-20 06:58:00,
2013-03-20 03:03:00,39.9,10.1,30.00,SSE,151,7.8,11.4,29,0.00,,,0.00,WUHU216HW,2013-03-20 07:03:00,
2013-03-20 03:08:00,39.7,9.9,30.00,ESE,113,10.2,11.4,29,0.00,,,0.00,WUHU216HW,2013-03-20 07:08:00,
2013-03-20 03:13:00,39.5,9.7,30.00,SE,135,6.0,10.2,29,0.00,,,0.00,WUHU216HW,2013-03-20 07:13:00,
2013-03-20 03:18:00,39.3,9.6,30.00,SE,135,5.1,6.7,29,0.00,,,0.00,WUHU216HW,2013-03-20 07:18:00,
2013-03-20 03:23:00,39.3,10.3,30.00,SE,124,6.2,6.4,30,0.00,,,0.00,WUHU216HW,2013-03-20 07:23:00,
2013-03-20 03:28:00,39.3,10.3,30.00,ESE,113,5.8,6.4,30,0.00,,,0.00,WUHU216HW,2013-03-20 07:28:00,
2013-03-20 03:33:00,39.0,10.1,30.00,SE,135,9.3,9.3,30,0.00,,,0.00,WUHU216HW,2013-03-20 07:33:00,
2013-03-20 03:38:00,39.0,10.1,30.00,SE,126,5.1,9.3,30,0.00,,,0.00,WUHU216HW,2013-03-20 07:38:00,
2013-03-20 03:43:00,38.8,9.9,30.00,SE,135,4.2,6.0,30,0.00,,,0.00,WUHU216HW,2013-03-20 07:43:00,
2013-03-20 03:49:00,38.4,11.0,30.00,East,90,12.3,12.3,32,0.00,,,0.00,WUHU216HW,2013-03-20 07:49:00,
2013-03-20 03:54:00,38.3,10.2,30.00,ESE,117,3.2,12.3,31,0.00,,,0.00,WUHU216HW,2013-03-20 07:54:00,
2013-03-20 03:59:00,38.3,10.2,30.00,SSE,158,3.3,6.4,31,0.00,,,0.00,WUHU216HW,2013-03-20 07:59:00,
2013-03-20 04:04:00,38.1,10.0,30.00,SSE,158,6.7,7.1,31,0.00,,,0.00,WUHU216HW,2013-03-20 08:04:00,
2013-03-20 04:09:00,37.9,10.5,30.00,SE,135,5.8,7.1,32,0.00,,,0.00,WUHU216HW,2013-03-20 08:09:00,
2013-03-20 04:14:00,37.5,10.2,30.00,SE,135,6.4,6.4,32,0.00,,,0.00,WUHU216HW,2013-03-20 08:14:00,
2013-03-20 04:19:00,37.5,10.2,30.00,SE,135,4.2,6.4,32,0.00,,,0.00,WUHU216HW,2013-03-20 08:19:00,
2013-03-20 04:24:00,37.5,10.2,30.00,ESE,119,2.8,4.2,32,0.00,,,0.00,WUHU216HW,2013-03-20 08:24:00,
2013-03-20 04:29:00,37.4,10.8,30.00,ESE,113,6.0,6.0,33,0.00,,,0.00,WUHU216HW,2013-03-20 08:29:00,
2013-03-20 04:34:00,37.2,9.9,30.00,ESE,113,2.6,6.0,32,0.00,,,0.00,WUHU216HW,2013-03-20 08:34:00,
2013-03-20 04:39:00,37.5,9.5,30.00,ESE,113,9.3,9.3,31,0.00,,,0.00,WUHU216HW,2013-03-20 08:39:00,
2013-03-20 04:44:00,37.9,9.8,30.00,South,180,4.2,9.3,31,0.00,,,0.00,WUHU216HW,2013-03-20 08:44:00,
2013-03-20 04:49:00,37.9,9.8,30.00,SE,135,5.5,9.3,31,0.00,,,0.00,WUHU216HW,2013-03-20 08:49:00,
2013-03-20 04:54:00,37.9,9.8,30.00,ESE,113,5.1,6.7,31,0.00,,,0.00,WUHU216HW,2013-03-20 08:54:00,
2013-03-20 04:59:00,37.2,9.9,30.00,ESE,113,3.6,8.0,32,0.00,,,0.00,WUHU216HW,2013-03-20 08:59:00,
2013-03-20 05:04:00,37.0,9.7,30.00,SSE,158,6.0,6.0,32,0.00,,,0.00,WUHU216HW,2013-03-20 09:04:00,
2013-03-20 05:09:00,36.8,9.6,30.01,ESE,113,1.1,6.0,32,0.00,,,0.00,WUHU216HW,2013-03-20 09:09:00,
2013-03-20 05:14:00,36.5,10.0,30.01,ESE,113,2.4,6.0,33,0.00,,,0.00,WUHU216HW,2013-03-20 09:14:00,
2013-03-20 05:19:00,36.1,9.6,30.00,SE,135,8.2,8.2,33,0.00,,,0.00,WUHU216HW,2013-03-20 09:19:00,
2013-03-20 05:25:00,36.3,9.1,30.01,SE,135,6.4,8.2,32,0.00,,,0.00,WUHU216HW,2013-03-20 09:25:00,
2013-03-20 05:30:00,36.3,9.8,30.01,East,90,2.6,8.2,33,0.00,,,0.00,WUHU216HW,2013-03-20 09:30:00,
2013-03-20 05:35:00,36.1,9.6,30.00,SE,135,5.5,5.8,33,0.00,,,0.00,WUHU216HW,2013-03-20 09:35:00,
2013-03-20 05:40:00,36.1,9.6,30.00,SE,135,4.6,5.5,33,0.00,,,0.00,WUHU216HW,2013-03-20 09:40:00,
2013-03-20 05:45:00,35.7,9.9,30.01,SE,135,10.5,10.5,34,0.00,,,0.00,WUHU216HW,2013-03-20 09:45:00,
2013-03-20 05:50:00,35.9,9.4,30.00,SE,135,2.0,10.5,33,0.00,,,0.00,WUHU216HW,2013-03-20 09:50:00,
2013-03-20 05:55:00,36.1,9.6,30.01,ESE,113,0.0,10.5,33,0.00,,,0.00,WUHU216HW,2013-03-20 09:55:00,
2013-03-20 06:00:00,35.7,9.3,30.01,East,90,1.7,3.3,33,0.00,,,0.00,WUHU216HW,2013-03-20 10:00:00,
2013-03-20 06:05:00,35.4,9.0,30.01,East,90,2.9,3.3,33,0.00,,,0.00,WUHU216HW,2013-03-20 10:05:00,
2013-03-20 06:10:00,35.2,9.5,30.01,East,90,2.4,2.9,34,0.00,,,0.00,WUHU216HW,2013-03-20 10:10:00,
2013-03-20 06:15:00,34.3,9.3,30.02,ESE,113,6.0,6.0,35,0.00,,,0.00,WUHU216HW,2013-03-20 10:15:00,
2013-03-20 06:20:00,34.7,9.7,30.02,East,101,4.7,6.0,35,0.00,,,0.00,WUHU216HW,2013-03-20 10:20:00,
2013-03-20 06:25:00,34.8,9.8,30.01,ESE,103,2.5,4.9,35,0.00,,,0.00,WUHU216HW,2013-03-20 10:25:00,
2013-03-20 06:30:00,34.7,9.7,30.01,East,90,1.3,4.4,35,0.00,,,0.00,WUHU216HW,2013-03-20 10:30:00,
2013-03-20 06:36:00,34.3,9.3,30.02,East,90,4.0,6.0,35,0.00,,,0.00,WUHU216HW,2013-03-20 10:36:00,
2013-03-20 06:41:00,34.3,9.3,30.02,East,90,2.3,6.0,35,0.00,,,0.00,WUHU216HW,2013-03-20 10:41:00,
2013-03-20 06:46:00,34.3,10.0,30.02,East,90,5.1,5.1,36,0.00,,,0.00,WUHU216HW,2013-03-20 10:46:00,
2013-03-20 06:51:00,33.9,9.6,30.02,ESE,113,2.4,5.1,36,0.00,,,0.00,WUHU216HW,2013-03-20 10:51:00,
2013-03-20 06:56:00,33.8,9.5,30.02,East,90,2.5,2.6,36,0.00,,,0.00,WUHU216HW,2013-03-20 10:56:00,
2013-03-20 07:01:00,33.6,9.4,30.02,East,90,2.6,3.3,36,0.00,,,0.00,WUHU216HW,2013-03-20 11:01:00,
2013-03-20 07:06:00,33.4,9.8,30.02,East,90,1.2,3.3,37,0.00,,,0.00,WUHU216HW,2013-03-20 11:06:00,
2013-03-20 07:11:00,33.0,9.4,30.02,East,90,0.0,3.1,37,0.00,,,0.00,WUHU216HW,2013-03-20 11:11:00,
2013-03-20 07:16:00,33.0,9.4,30.02,East,90,2.4,2.4,37,0.00,,,0.00,WUHU216HW,2013-03-20 11:16:00,
2013-03-20 07:22:00,32.9,9.3,30.02,East,90,2.3,2.6,37,0.00,,,0.00,WUHU216HW,2013-03-20 11:22:00,
2013-03-20 07:27:00,32.7,9.8,30.02,East,90,2.0,3.3,38,0.00,,,0.00,WUHU216HW,2013-03-20 11:27:00,
2013-03-20 07:32:00,32.7,9.8,30.02,East,90,1.1,3.3,38,0.00,,,0.00,WUHU216HW,2013-03-20 11:32:00,
2013-03-20 07:37:00,32.7,10.4,30.02,East,90,1.1,1.5,39,0.00,,,0.00,WUHU216HW,2013-03-20 11:37:00,
2013-03-20 07:42:00,32.5,10.2,30.02,East,90,1.3,1.3,39,0.00,,,0.00,WUHU216HW,2013-03-20 11:42:00,
2013-03-20 07:47:00,32.7,10.4,30.02,East,90,0.0,1.3,39,0.00,,,0.00,WUHU216HW,2013-03-20 11:47:00,
2013-03-20 07:52:00,32.9,10.5,30.02,East,90,0.0,0.8,39,0.00,,,0.00,WUHU216HW,2013-03-20 11:52:00,
2013-03-20 07:57:00,33.2,12.0,30.03,East,90,0.0,0.8,41,0.00,,,0.00,WUHU216HW,2013-03-20 11:57:00,
2013-03-20 08:02:00,33.6,12.3,30.03,East,90,1.3,1.3,41,0.00,,,0.00,WUHU216HW,2013-03-20 12:02:00,
2013-03-20 08:07:00,33.9,12.6,30.03,East,90,0.0,1.3,41,0.00,,,0.00,WUHU216HW,2013-03-20 12:07:00,
2013-03-20 08:12:00,34.3,13.0,30.03,ESE,113,1.3,1.3,41,0.00,,,0.00,WUHU216HW,2013-03-20 12:12:00,
2013-03-20 08:17:00,34.8,13.4,30.03,East,90,3.5,4.6,41,0.00,,,0.00,WUHU216HW,2013-03-20 12:17:00,
2013-03-20 08:22:00,35.4,13.9,30.03,East,90,4.0,4.6,41,0.00,,,0.00,WUHU216HW,2013-03-20 12:22:00,
2013-03-20 08:27:00,35.7,14.2,30.03,ESE,113,3.8,4.0,41,0.00,,,0.00,WUHU216HW,2013-03-20 12:27:00,
2013-03-20 08:33:00,36.3,14.8,30.03,East,90,0.0,4.0,41,0.00,,,0.00,WUHU216HW,2013-03-20 12:33:00,
2013-03-20 08:38:00,37.2,15.0,30.03,East,90,3.3,3.3,40,0.00,,,0.00,WUHU216HW,2013-03-20 12:38:00,
2013-03-20 08:43:00,37.5,14.7,30.03,East,90,5.8,5.8,39,0.00,,,0.00,WUHU216HW,2013-03-20 12:43:00,
2013-03-20 08:48:00,38.1,15.2,30.03,East,90,0.0,5.8,39,0.00,,,0.00,WUHU216HW,2013-03-20 12:48:00,
2013-03-20 08:53:00,38.4,15.5,30.04,ESE,113,5.5,5.8,39,0.00,,,0.00,WUHU216HW,2013-03-20 12:53:00,
2013-03-20 08:58:00,39.0,15.4,30.03,ENE,70,4.0,5.5,38,0.00,,,0.00,WUHU216HW,2013-03-20 12:58:00,
2013-03-20 09:03:00,39.3,15.7,30.04,ESE,113,6.2,6.2,38,0.00,,,0.00,WUHU216HW,2013-03-20 13:03:00,
2013-03-20 09:08:00,39.5,14.6,30.03,SE,135,1.7,6.2,36,0.00,,,0.00,WUHU216HW,2013-03-20 13:08:00,
2013-03-20 09:13:00,39.9,15.6,30.03,ESE,113,6.2,9.3,37,0.00,,,0.00,WUHU216HW,2013-03-20 13:13:00,
2013-03-20 09:18:00,40.1,15.8,30.04,ESE,113,5.8,9.3,37,0.00,,,0.00,WUHU216HW,2013-03-20 13:18:00,
2013-03-20 09:23:00,40.6,16.2,30.04,ESE,113,7.8,10.5,37,0.00,,,0.00,WUHU216HW,2013-03-20 13:23:00,
2013-03-20 09:28:00,40.6,15.6,30.03,East,90,9.1,10.5,36,0.00,,,0.00,WUHU216HW,2013-03-20 13:28:00,
2013-03-20 09:33:00,40.8,15.8,30.04,ESE,113,5.3,9.1,36,0.00,,,0.00,WUHU216HW,2013-03-20 13:33:00,
2013-03-20 09:38:00,40.8,14.5,30.04,ESE,113,4.4,7.1,34,0.00,,,0.00,WUHU216HW,2013-03-20 13:38:00,
2013-03-20 09:43:00,40.6,14.9,30.04,South,180,3.5,5.8,35,0.00,,,0.00,WUHU216HW,2013-03-20 13:43:00,
2013-03-20 09:48:00,40.8,14.5,30.04,SE,135,8.2,8.2,34,0.00,,,0.00,WUHU216HW,2013-03-20 13:48:00,
2013-03-20 09:53:00,40.8,14.5,30.04,ESE,113,6.4,8.2,34,0.00,,,0.00,WUHU216HW,2013-03-20 13:53:00,
2013-03-20 09:59:00,41.0,15.3,30.04,SE,135,6.0,13.4,35,0.00,,,0.00,WUHU216HW,2013-03-20 13:59:00,
2013-03-20 10:04:00,41.3,16.2,30.03,SSE,158,6.4,13.4,36,0.00,,,0.00,WUHU216HW,2013-03-20 14:04:00,
2013-03-20 10:09:00,41.5,15.1,30.03,South,180,15.6,15.6,34,0.00,,,0.00,WUHU216HW,2013-03-20 14:09:00,
2013-03-20 10:14:00,41.5,15.1,30.03,SE,135,4.2,15.6,34,0.00,,,0.00,WUHU216HW,2013-03-20 14:14:00,
2013-03-20 10:19:00,41.7,15.3,30.03,SSW,203,2.4,5.1,34,0.00,,,0.00,WUHU216HW,2013-03-20 14:19:00,
2013-03-20 10:24:00,42.0,15.5,30.03,ESE,113,5.3,9.8,34,0.00,,,0.00,WUHU216HW,2013-03-20 14:24:00,
2013-03-20 10:29:00,42.0,15.5,30.03,SW,225,3.8,9.8,34,0.00,,,0.00,WUHU216HW,2013-03-20 14:29:00,
2013-03-20 10:34:00,42.4,15.9,30.03,SE,135,5.5,6.9,34,0.00,,,0.00,WUHU216HW,2013-03-20 14:34:00,
2013-03-20 10:39:00,42.6,15.4,30.03,ESE,113,6.0,8.7,33,0.00,,,0.00,WUHU216HW,2013-03-20 14:39:00,
2013-03-20 10:44:00,42.9,15.6,30.02,South,180,5.5,8.7,33,0.00,,,0.00,WUHU216HW,2013-03-20 14:44:00,
2013-03-20 10:49:00,42.6,15.4,30.02,SE,126,12.0,14.0,33,0.00,,,0.00,WUHU216HW,2013-03-20 14:49:00,
2013-03-20 10:54:00,42.9,16.3,30.02,ENE,68,4.9,14.0,34,0.00,,,0.00,WUHU216HW,2013-03-20 14:54:00,
2013-03-20 10:59:00,43.3,16.0,30.01,SSE,151,5.4,6.9,33,0.00,,,0.00,WUHU216HW,2013-03-20 14:59:00,
2013-03-20 11:04:00,43.5,16.8,30.01,SE,135,6.4,7.1,34,0.00,,,0.00,WUHU216HW,2013-03-20 15:04:00,
2013-03-20 11:09:00,43.8,16.4,30.01,SSE,158,6.2,7.1,33,0.00,,,0.00,WUHU216HW,2013-03-20 15:09:00,
2013-03-20 11:14:00,43.8,15.7,30.01,SE,126,5.6,8.7,32,0.00,,,0.00,WUHU216HW,2013-03-20 15:14:00,
2013-03-20 11:19:00,43.7,14.2,30.01,SW,225,6.2,8.7,30,0.00,,,0.00,WUHU216HW,2013-03-20 15:19:00,
2013-03-20 11:25:00,43.7,14.9,30.00,SE,143,12.4,20.5,31,0.00,,,0.00,WUHU216HW,2013-03-20 15:25:00,
2013-03-20 11:30:00,43.8,15.0,30.01,East,90,4.0,20.5,31,0.00,,,0.00,WUHU216HW,2013-03-20 15:30:00,
2013-03-20 11:35:00,44.0,15.9,30.00,SE,135,10.9,10.9,32,0.00,,,0.00,WUHU216HW,2013-03-20 15:35:00,
2013-03-20 11:40:00,44.4,15.5,30.01,SSE,158,9.8,10.9,31,0.00,,,0.00,WUHU216HW,2013-03-20 15:40:00,
2013-03-20 11:45:00,44.9,16.7,30.00,ESE,113,7.8,10.7,32,0.00,,,0.00,WUHU216HW,2013-03-20 15:45:00,
2013-03-20 11:50:00,45.1,16.9,30.00,ESE,113,4.0,8.9,32,0.00,,,0.00,WUHU216HW,2013-03-20 15:50:00,
2013-03-20 11:55:00,45.5,16.5,29.99,SSE,158,15.8,15.8,31,0.00,,,0.00,WUHU216HW,2013-03-20 15:55:00,
2013-03-20 12:00:00,45.6,16.6,30.00,ESE,113,10.0,15.8,31,0.00,,,0.00,WUHU216HW,2013-03-20 16:00:00,
2013-03-20 12:05:00,45.5,15.7,29.99,SSE,158,4.9,15.8,30,0.00,,,0.00,WUHU216HW,2013-03-20 16:05:00,
2013-03-20 12:10:00,45.6,16.6,29.99,SSE,158,4.9,10.7,31,0.00,,,0.00,WUHU216HW,2013-03-20 16:10:00,
2013-03-20 12:15:00,45.8,16.0,29.98,SSE,158,6.2,12.0,30,0.00,,,0.00,WUHU216HW,2013-03-20 16:15:00,
2013-03-20 12:20:00,46.0,17.7,29.98,South,170,4.5,12.0,32,0.00,,,0.00,WUHU216HW,2013-03-20 16:20:00,
2013-03-20 12:25:00,46.5,18.1,29.99,ESE,113,6.7,9.6,32,0.00,,,0.00,WUHU216HW,2013-03-20 16:25:00,
2013-03-20 12:30:00,46.7,18.3,29.98,East,90,8.9,8.9,32,0.00,,,0.00,WUHU216HW,2013-03-20 16:30:00,
2013-03-20 12:35:00,46.9,17.7,29.98,SE,135,12.5,12.5,31,0.00,,,0.00,WUHU216HW,2013-03-20 16:35:00,
2013-03-20 12:41:00,46.7,16.8,29.98,ESE,113,14.5,14.5,30,0.00,,,0.00,WUHU216HW,2013-03-20 16:41:00,
2013-03-20 12:46:00,46.5,17.4,29.97,SE,135,10.2,14.5,31,0.00,,,0.00,WUHU216HW,2013-03-20 16:46:00,
2013-03-20 12:51:00,46.9,18.4,29.97,ESE,113,11.1,11.1,32,0.00,,,0.00,WUHU216HW,2013-03-20 16:51:00,
2013-03-20 12:56:00,46.9,17.0,29.97,SE,135,5.8,11.1,30,0.00,,,0.00,WUHU216HW,2013-03-20 16:56:00,
2013-03-20 13:01:00,46.7,16.0,29.97,SE,135,5.1,11.1,29,0.00,,,0.00,WUHU216HW,2013-03-20 17:01:00,
2013-03-20 13:06:00,46.9,17.7,29.97,NE,49,4.9,12.5,31,0.00,,,0.00,WUHU216HW,2013-03-20 17:06:00,
2013-03-20 13:11:00,47.1,17.9,29.96,SSW,203,2.4,12.5,31,0.00,,,0.00,WUHU216HW,2013-03-20 17:11:00,
2013-03-20 13:16:00,47.1,17.1,29.96,ESE,113,6.0,15.2,30,0.00,,,0.00,WUHU216HW,2013-03-20 17:16:00,
2013-03-20 13:21:00,47.3,18.1,29.95,East,90,11.4,15.2,31,0.00,,,0.00,WUHU216HW,2013-03-20 17:21:00,
2013-03-20 13:26:00,48.0,18.7,29.95,ESE,113,12.9,12.9,31,0.00,,,0.00,WUHU216HW,2013-03-20 17:26:00,
2013-03-20 13:31:00,47.8,17.0,29.95,SE,135,4.6,12.9,29,0.00,,,0.00,WUHU216HW,2013-03-20 17:31:00,
2013-03-20 13:36:00,48.0,17.9,29.94,East,89,6.3,12.9,30,0.00,,,0.00,WUHU216HW,2013-03-20 17:36:00,
2013-03-20 13:42:00,48.0,17.1,29.94,ESE,113,5.5,9.1,29,0.00,,,0.00,WUHU216HW,2013-03-20 17:42:00,
2013-03-20 13:47:00,48.5,19.1,29.93,ESE,113,4.9,6.2,31,0.00,,,0.00,WUHU216HW,2013-03-20 17:47:00,
2013-03-20 13:52:00,49.1,19.6,29.93,SE,135,8.5,8.5,31,0.00,,,0.00,WUHU216HW,2013-03-20 17:52:00,
2013-03-20 13:57:00,49.2,17.4,29.92,East,98,11.4,14.7,28,0.00,,,0.00,WUHU216HW,2013-03-20 17:57:00,
2013-03-20 14:02:00,49.6,18.5,29.92,ESE,113,10.2,14.7,29,0.00,,,0.00,WUHU216HW,2013-03-20 18:02:00,
2013-03-20 14:07:00,49.6,18.5,29.92,SE,135,12.0,12.0,29,0.00,,,0.00,WUHU216HW,2013-03-20 18:07:00,
2013-03-20 14:12:00,49.1,17.3,29.92,SE,135,7.0,12.0,28,0.00,,,0.00,WUHU216HW,2013-03-20 18:12:00,
2013-03-20 14:17:00,49.1,17.3,29.91,East,90,10.5,10.5,28,0.00,,,0.00,WUHU216HW,2013-03-20 18:17:00,
2013-03-20 14:22:00,49.1,18.1,29.91,East,90,8.9,10.5,29,0.00,,,0.00,WUHU216HW,2013-03-20 18:22:00,
2013-03-20 14:27:00,49.6,18.5,29.90,East,90,8.9,10.5,29,0.00,,,0.00,WUHU216HW,2013-03-20 18:27:00,
2013-03-20 14:32:00,50.0,18.1,29.90,SE,135,6.2,8.9,28,0.00,,,0.00,WUHU216HW,2013-03-20 18:32:00,
2013-03-20 14:37:00,50.1,18.2,29.90,SE,126,8.4,14.5,28,0.00,,,0.00,WUHU216HW,2013-03-20 18:37:00,
2013-03-20 14:42:00,50.1,19.0,29.89,SE,135,5.1,14.5,29,0.00,,,0.00,WUHU216HW,2013-03-20 18:42:00,
2013-03-20 14:48:00,50.3,19.1,29.89,ESE,113,9.6,10.5,29,0.00,,,0.00,WUHU216HW,2013-03-20 18:48:00,
2013-03-20 14:53:00,50.7,19.5,29.88,ESE,113,14.7,14.7,29,0.00,,,0.00,WUHU216HW,2013-03-20 18:53:00,
2013-03-20 14:58:00,51.4,20.9,29.88,SE,135,18.3,18.3,30,0.00,,,0.00,WUHU216HW,2013-03-20 18:58:00,
2013-03-20 15:03:00,51.8,19.6,29.87,East,90,7.3,18.3,28,0.00,,,0.00,WUHU216HW,2013-03-20 19:03:00,
2013-03-20 15:08:00,51.6,20.3,29.87,ENE,68,14.5,14.5,29,0.00,,,0.00,WUHU216HW,2013-03-20 19:08:00,
2013-03-20 15:13:00,51.8,20.4,29.86,SE,135,2.0,14.5,29,0.00,,,0.00,WUHU216HW,2013-03-20 19:13:00,
2013-03-20 15:18:00,51.8,19.6,29.87,SE,135,6.7,14.5,28,0.00,,,0.00,WUHU216HW,2013-03-20 19:18:00,
2013-03-20 15:23:00,51.2,19.1,29.87,SSE,158,8.0,8.0,28,0.00,,,0.00,WUHU216HW,2013-03-20 19:23:00,
2013-03-20 15:28:00,50.9,18.8,29.86,ESE,113,5.5,8.0,28,0.00,,,0.00,WUHU216HW,2013-03-20 19:28:00,
2013-03-20 15:33:00,51.0,19.7,29.85,ENE,68,6.7,10.0,29,0.00,,,0.00,WUHU216HW,2013-03-20 19:33:00,
2013-03-20 15:38:00,51.9,20.5,29.85,SE,135,8.9,10.0,29,0.00,,,0.00,WUHU216HW,2013-03-20 19:38:00,
2013-03-20 15:43:00,52.7,20.4,29.85,SE,135,8.7,10.9,28,0.00,,,0.00,WUHU216HW,2013-03-20 19:43:00,
2013-03-20 15:48:00,52.8,19.6,29.85,East,98,7.0,10.9,27,0.00,,,0.00,WUHU216HW,2013-03-20 19:48:00,
2013-03-20 15:53:00,52.7,19.6,29.85,South,180,1.3,8.9,27,0.00,,,0.00,WUHU216HW,2013-03-20 19:53:00,
2013-03-20 15:59:00,52.7,20.4,29.85,East,90,6.0,7.8,28,0.00,,,0.00,WUHU216HW,2013-03-20 19:59:00,
2013-03-20 16:04:00,52.8,18.8,29.84,SE,135,8.2,8.2,26,0.00,,,0.00,WUHU216HW,2013-03-20 20:04:00,
2013-03-20 16:09:00,52.8,19.6,29.84,ESE,113,8.9,8.9,27,0.00,,,0.00,WUHU216HW,2013-03-20 20:09:00,
2013-03-20 16:14:00,52.8,19.6,29.83,ESE,113,6.2,8.9,27,0.00,,,0.00,WUHU216HW,2013-03-20 20:14:00,
2013-03-20 16:19:00,52.8,18.8,29.83,SE,135,10.2,10.7,26,0.00,,,0.00,WUHU216HW,2013-03-20 20:19:00,
2013-03-20 16:24:00,52.7,16.9,29.83,ESE,113,7.8,11.1,24,0.00,,,0.00,WUHU216HW,2013-03-20 20:24:00,
2013-03-20 16:29:00,52.1,16.4,29.84,SE,127,8.2,14.9,24,0.00,,,0.00,WUHU216HW,2013-03-20 20:29:00,
2013-03-20 16:34:00,52.3,18.4,29.83,SW,225,4.9,14.9,26,0.00,,,0.00,WUHU216HW,2013-03-20 20:34:00,
2013-03-20 16:39:00,52.5,16.7,29.83,SSE,158,11.1,11.1,24,0.00,,,0.00,WUHU216HW,2013-03-20 20:39:00,
2013-03-20 16:44:00,52.5,15.7,29.82,ESE,113,14.0,14.0,23,0.00,,,0.00,WUHU216HW,2013-03-20 20:44:00,
2013-03-20 16:50:00,52.3,16.5,29.82,SE,135,5.8,14.0,24,0.00,,,0.00,WUHU216HW,2013-03-20 20:50:00,
2013-03-20 16:55:00,52.5,16.7,29.82,SSE,158,12.9,12.9,24,0.00,,,0.00,WUHU216HW,2013-03-20 20:55:00,
2013-03-20 17:00:00,51.9,16.2,29.82,SE,135,7.3,12.9,24,0.00,,,0.00,WUHU216HW,2013-03-20 21:00:00,
2013-03-20 17:05:00,51.9,18.0,29.82,ESE,113,6.9,12.9,26,0.00,,,0.00,WUHU216HW,2013-03-20 21:05:00,
2013-03-20 17:10:00,51.6,15.9,29.82,SE,132,4.3,11.6,24,0.00,,,0.00,WUHU216HW,2013-03-20 21:10:00,
2013-03-20 17:15:00,51.4,17.6,29.82,East,90,5.8,9.8,26,0.00,,,0.00,WUHU216HW,2013-03-20 21:15:00,
2013-03-20 17:20:00,51.4,16.7,29.81,SE,135,11.1,11.1,25,0.00,,,0.00,WUHU216HW,2013-03-20 21:20:00,
2013-03-20 17:25:00,51.8,17.9,29.81,SE,135,6.7,11.1,26,0.00,,,0.00,WUHU216HW,2013-03-20 21:25:00,
2013-03-20 17:30:00,51.9,17.1,29.80,ESE,113,5.5,11.1,25,0.00,,,0.00,WUHU216HW,2013-03-20 21:30:00,
2013-03-20 17:35:00,52.1,18.2,29.80,SSE,158,4.9,6.7,26,0.00,,,0.00,WUHU216HW,2013-03-20 21:35:00,
2013-03-20 17:40:00,52.1,16.4,29.80,SSW,203,1.5,5.8,24,0.00,,,0.00,WUHU216HW,2013-03-20 21:40:00,
2013-03-20 17:45:00,51.8,16.1,29.80,ENE,68,1.3,6.7,24,0.00,,,0.00,WUHU216HW,2013-03-20 21:45:00,
2013-03-20 17:50:00,51.6,15.9,29.80,ENE,68,11.6,11.6,24,0.00,,,0.00,WUHU216HW,2013-03-20 21:50:00,
2013-03-20 17:55:00,51.4,17.6,29.80,East,99,6.4,11.6,26,0.00,,,0.00,WUHU216HW,2013-03-20 21:55:00,
2013-03-20 18:00:00,51.0,15.4,29.79,SSE,158,2.9,7.6,24,0.00,,,0.00,WUHU216HW,2013-03-20 22:00:00,
2013-03-20 18:05:00,50.9,15.3,29.79,East,90,4.9,6.4,24,0.00,,,0.00,WUHU216HW,2013-03-20 22:05:00,
2013-03-20 18:10:00,50.7,16.1,29.79,SSE,158,4.6,6.4,25,0.00,,,0.00,WUHU216HW,2013-03-20 22:10:00,
2013-03-20 18:15:00,50.7,16.1,29.79,ESE,113,4.4,6.2,25,0.00,,,0.00,WUHU216HW,2013-03-20 22:15:00,
2013-03-20 18:21:00,50.9,17.2,29.79,East,90,1.7,6.2,26,0.00,,,0.00,WUHU216HW,2013-03-20 22:21:00,
2013-03-20 18:26:00,51.0,16.3,29.79,SE,135,5.8,5.8,25,0.00,,,0.00,WUHU216HW,2013-03-20 22:26:00,
2013-03-20 18:31:00,51.4,17.6,29.79,East,90,7.1,7.1,26,0.00,,,0.00,WUHU216HW,2013-03-20 22:31:00,
2013-03-20 18:36:00,51.4,16.7,29.79,ENE,68,5.5,7.1,25,0.00,,,0.00,WUHU216HW,2013-03-20 22:36:00,
2013-03-20 18:41:00,51.4,17.6,29.79,ESE,113,8.7,8.7,26,0.00,,,0.00,WUHU216HW,2013-03-20 22:41:00,
2013-03-20 18:46:00,51.0,17.2,29.79,ESE,113,6.8,8.7,26,0.00,,,0.00,WUHU216HW,2013-03-20 22:46:00,
2013-03-20 18:51:00,50.7,17.0,29.79,ESE,113,4.9,7.8,26,0.00,,,0.00,WUHU216HW,2013-03-20 22:51:00,
2013-03-20 18:56:00,50.7,17.8,29.79,ENE,68,3.5,6.0,27,0.00,,,0.00,WUHU216HW,2013-03-20 22:56:00,
2013-03-20 19:01:00,50.1,16.5,29.79,ESE,113,5.5,6.0,26,0.00,,,0.00,WUHU216HW,2013-03-20 23:01:00,
2013-03-20 19:06:00,49.8,17.1,29.79,East,90,2.0,6.0,27,0.00,,,0.00,WUHU216HW,2013-03-20 23:06:00,
2013-03-20 19:11:00,49.4,16.7,29.79,East,90,3.3,5.5,27,0.00,,,0.00,WUHU216HW,2013-03-20 23:11:00,
2013-03-20 19:17:00,48.7,16.1,29.79,ESE,113,5.1,5.1,27,0.00,,,0.00,WUHU216HW,2013-03-20 23:17:00,
2013-03-20 19:22:00,48.3,15.8,29.80,East,90,2.0,5.1,27,0.00,,,0.00,WUHU216HW,2013-03-20 23:22:00,
2013-03-20 19:27:00,47.6,16.0,29.80,East,90,0.0,5.1,28,0.00,,,0.00,WUHU216HW,2013-03-20 23:27:00,
2013-03-20 19:32:00,47.1,15.6,29.79,SE,135,4.9,4.9,28,0.00,,,0.00,WUHU216HW,2013-03-20 23:32:00,
2013-03-20 19:37:00,46.9,15.4,29.80,SE,135,7.8,7.8,28,0.00,,,0.00,WUHU216HW,2013-03-20 23:37:00,
2013-03-20 19:42:00,46.9,15.4,29.80,ESE,113,4.0,7.8,28,0.00,,,0.00,WUHU216HW,2013-03-20 23:42:00,
2013-03-20 19:47:00,46.7,15.2,29.80,East,90,4.2,7.8,28,0.00,,,0.00,WUHU216HW,2013-03-20 23:47:00,
2013-03-20 19:52:00,46.5,15.0,29.80,ESE,113,0.8,4.2,28,0.00,,,0.00,WUHU216HW,2013-03-20 23:52:00,
2013-03-20 19:57:00,46.2,14.8,29.80,ESE,113,0.0,0.8,28,0.00,,,0.00,WUHU216HW,2013-03-20 23:57:00,
2013-03-20 20:02:00,46.0,15.4,29.79,ESE,113,0.0,0.8,29,0.00,,,0.00,WUHU216HW,2013-03-21 00:02:00,
2013-03-20 20:07:00,45.6,15.0,29.79,ESE,113,6.7,6.7,29,0.00,,,0.00,WUHU216HW,2013-03-21 00:07:00,
2013-03-20 20:12:00,45.3,14.8,29.79,SSE,158,5.3,6.7,29,0.00,,,0.00,WUHU216HW,2013-03-21 00:12:00,
2013-03-20 20:17:00,45.3,14.8,29.79,ESE,113,4.0,6.7,29,0.00,,,0.00,WUHU216HW,2013-03-21 00:17:00,
2013-03-20 20:22:00,45.3,14.8,29.79,ESE,113,3.3,4.4,29,0.00,,,0.00,WUHU216HW,2013-03-21 00:22:00,
2013-03-20 20:27:00,45.1,15.4,29.79,SE,135,0.0,3.3,30,0.00,,,0.00,WUHU216HW,2013-03-21 00:27:00,
2013-03-20 20:32:00,44.9,15.2,29.79,ESE,113,0.0,1.5,30,0.00,,,0.00,WUHU216HW,2013-03-21 00:32:00,
2013-03-20 20:37:00,44.6,14.9,29.79,ESE,113,0.0,0.0,30,0.00,,,0.00,WUHU216HW,2013-03-21 00:37:00,
2013-03-20 20:43:00,44.4,14.8,29.79,ESE,113,0.0,0.0,30,0.00,,,0.00,WUHU216HW,2013-03-21 00:43:00,
2013-03-20 20:48:00,44.0,14.4,29.79,SSE,158,4.2,4.2,30,0.00,,,0.00,WUHU216HW,2013-03-21 00:48:00,
2013-03-20 20:53:00,43.8,14.2,29.79,SE,135,0.0,4.2,30,0.00,,,0.00,WUHU216HW,2013-03-21 00:53:00,
2013-03-20 20:58:00,43.8,15.0,29.79,SSE,158,2.0,4.2,31,0.00,,,0.00,WUHU216HW,2013-03-21 00:58:00,
2013-03-20 21:03:00,43.5,14.7,29.79,SE,135,1.7,2.4,31,0.00,,,0.00,WUHU216HW,2013-03-21 01:03:00,
2013-03-20 21:08:00,43.3,14.6,29.80,SE,135,0.2,2.4,31,0.00,,,0.00,WUHU216HW,2013-03-21 01:08:00,
2013-03-20 21:13:00,43.1,14.4,29.79,SSE,158,0.0,0.4,31,0.00,,,0.00,WUHU216HW,2013-03-21 01:13:00,
2013-03-20 21:18:00,42.8,14.1,29.79,SSE,158,0.0,0.2,31,0.00,,,0.00,WUHU216HW,2013-03-21 01:18:00,
2013-03-20 21:23:00,42.6,14.7,29.79,SSE,158,0.0,0.0,32,0.00,,,0.00,WUHU216HW,2013-03-21 01:23:00,
2013-03-20 21:28:00,42.4,14.5,29.79,SSE,158,0.0,4.4,32,0.00,,,0.00,WUHU216HW,2013-03-21 01:28:00,
2013-03-20 21:33:00,42.0,14.1,29.79,SSE,158,0.0,4.4,32,0.00,,,0.00,WUHU216HW,2013-03-21 01:33:00,
2013-03-20 21:39:00,41.7,14.6,29.79,SSE,158,0.0,0.0,33,0.00,,,0.00,WUHU216HW,2013-03-21 01:39:00,
2013-03-20 21:44:00,41.1,14.0,29.78,SSE,158,0.0,0.0,33,0.00,,,0.00,WUHU216HW,2013-03-21 01:44:00,
2013-03-20 21:49:00,40.8,14.5,29.78,SSE,158,0.4,0.4,34,0.00,,,0.00,WUHU216HW,2013-03-21 01:49:00,
2013-03-20 21:54:00,40.6,14.9,29.79,SSE,158,2.4,2.4,35,0.00,,,0.00,WUHU216HW,2013-03-21 01:54:00,
2013-03-20 21:59:00,40.1,15.2,29.78,SSE,158,0.0,2.4,36,0.00,,,0.00,WUHU216HW,2013-03-21 01:59:00,
2013-03-20 22:04:00,39.9,15.0,29.78,SSE,158,0.0,2.4,36,0.00,,,0.00,WUHU216HW,2013-03-21 02:04:00,
2013-03-20 22:09:00,39.5,15.3,29.78,SSE,158,5.8,5.8,37,0.00,,,0.00,WUHU216HW,2013-03-21 02:09:00,
2013-03-20 22:14:00,39.5,15.3,29.78,SSE,158,4.1,6.4,37,0.00,,,0.00,WUHU216HW,2013-03-21 02:14:00,
2013-03-20 22:19:00,39.7,15.4,29.78,SE,135,4.2,6.4,37,0.00,,,0.00,WUHU216HW,2013-03-21 02:19:00,
2013-03-20 22:24:00,40.4,15.4,29.78,SE,144,4.7,8.7,36,0.00,,,0.00,WUHU216HW,2013-03-21 02:24:00,
2013-03-20 22:29:00,41.1,16.0,29.78,SE,135,6.2,8.7,36,0.00,,,0.00,WUHU216HW,2013-03-21 02:29:00,
2013-03-20 22:34:00,41.7,15.9,29.78,SE,135,5.3,6.2,35,0.00,,,0.00,WUHU216HW,2013-03-21 02:34:00,
2013-03-20 22:39:00,42.0,16.2,29.78,SE,135,4.6,6.2,35,0.00,,,0.00,WUHU216HW,2013-03-21 02:39:00,
2013-03-20 22:44:00,42.4,15.9,29.78,SE,135,2.0,4.6,34,0.00,,,0.00,WUHU216HW,2013-03-21 02:44:00,
2013-03-20 22:49:00,42.4,15.9,29.78,ESE,113,2.2,2.2,34,0.00,,,0.00,WUHU216HW,2013-03-21 02:49:00,
2013-03-20 22:54:00,42.4,15.9,29.78,SE,135,6.0,6.0,34,0.00,,,0.00,WUHU216HW,2013-03-21 02:54:00,
2013-03-20 22:59:00,42.4,15.9,29.79,SE,135,2.4,6.0,34,0.00,,,0.00,WUHU216HW,2013-03-21 02:59:00,
2013-03-20 23:04:00,42.6,16.1,29.79,SSW,203,8.5,8.5,34,0.00,,,0.00,WUHU216HW,2013-03-21 03:04:00,
2013-03-20 23:10:00,42.6,17.4,29.79,SW,225,5.3,12.0,36,0.00,,,0.00,WUHU216HW,2013-03-21 03:10:00,
2013-03-20 23:15:00,42.4,17.2,29.79,WSW,248,2.9,12.0,36,0.00,,,0.00,WUHU216HW,2013-03-21 03:15:00,
2013-03-20 23:20:00,41.9,17.4,29.79,SW,225,3.8,9.8,37,0.00,,,0.00,WUHU216HW,2013-03-21 03:20:00,
2013-03-20 23:25:00,41.5,17.7,29.78,SW,225,4.2,5.5,38,0.00,,,0.00,WUHU216HW,2013-03-21 03:25:00,
2013-03-20 23:30:00,41.5,18.3,29.78,SSW,203,0.0,4.2,39,0.00,,,0.00,WUHU216HW,2013-03-21 03:30:00,
2013-03-20 23:35:00,41.1,18.5,29.79,SW,225,5.5,6.0,40,0.00,,,0.00,WUHU216HW,2013-03-21 03:35:00,
2013-03-20 23:40:00,41.0,19.0,29.79,SW,225,0.0,6.0,41,0.00,,,0.00,WUHU216HW,2013-03-21 03:40:00,
2013-03-20 23:45:00,40.8,18.8,29.79,SSE,158,1.7,5.5,41,0.00,,,0.00,WUHU216HW,2013-03-21 03:45:00,
2013-03-20 23:50:00,40.6,18.7,29.78,SSE,158,0.0,1.7,41,0.00,,,0.00,WUHU216HW,2013-03-21 03:50:00,
2013-03-20 23:55:00,40.2,18.9,29.79,SSE,158,0.0,0.0,42,0.00,,,0.00,WUHU216HW,2013-03-21 03:55:00,